Flora, IL

3:16 AM CST on December 11, 2016 (GMT -0600)
Flora Municipal

Weather History for KFOA - September, 2012

Change the Weather History Date:

Saturday, September 1, 2012

  Actual Average (KSLO) Record (KSLO)
Temperature  
Mean Temperature 80 °F -  
Max Temperature 87 °F 86 °F 100 °F (2011)
Min Temperature 73 °F 62 °F 46 °F (1967)
Cooling Degree Days 14    
Growing Degree Days 30 (Base 50)    
Moisture  
Dew Point 74 °F    
Average Humidity 89    
Maximum Humidity 100    
Minimum Humidity 64    
Precipitation  
Precipitation 3.23 in - - ()
Sea Level Pressure  
Sea Level Pressure 29.92 in    
Wind  
Wind Speed 11 mph (SE)    
Max Wind Speed 22 mph    
Max Gust Speed 30 mph    
Visibility 8 miles    
Events Rain , Thunderstorm    
Averages and records for this station are not official NWS values.
T = Trace of Precipitation, MM = Missing Value Source: NWS Daily Summary

Daily Weather History Graph

Daily Weather History Graph

Search for Another Location

Airport or City:

Trip Planner

Search our weather history database for the weather conditions in past years. The results will help you decide how hot, cold, wet, or windy it might be!

Date:

Astronomy

Sep. 01, 2012 Rise Set
Actual Time 6:23 AM CDT 7:23 PM CDT
Civil Twilight 5:56 AM CDT 7:50 PM CDT
Nautical Twilight 5:23 AM CDT 8:22 PM CDT
Astronomical Twilight 4:50 AM CDT 8:55 PM CDT
Moon 7:41 PM CDT (9/1) 7:29 AM CDT (9/1)
Length of Visible Light 13h 54m
Length of Day
12h 59m
Full, 99% of the Moon is Illuminated
Sep 1
Full
Sep 8
Last Quarter
Sep 15
New
Sep 22
First Quarter
Sep 29
Full

Hourly Weather History & Observations

Time (CDT) Temp. Heat Index Dew Point Humidity Pressure Visibility Wind Dir Wind Speed Gust Speed Precip Events Conditions
12:15 AM 77.4 °F - 75.9 °F 95% 30.00 in 7.0 mi East 9.2 mph - 0.05 in Rain Rain
12:35 AM 77.2 °F - 75.9 °F 96% 29.99 in 7.0 mi East 9.2 mph - 0.09 in Rain Rain
12:55 AM 77.5 °F - 76.1 °F 95% 29.99 in 10.0 mi East 11.5 mph - 0.11 in Rain Light Rain
1:15 AM 77.5 °F - 75.7 °F 94% 29.98 in 10.0 mi East 11.5 mph - N/A   Scattered Clouds
1:35 AM 77.5 °F - 75.6 °F 94% 29.97 in 10.0 mi East 10.4 mph - N/A   Scattered Clouds
1:55 AM 77.5 °F - 75.4 °F 93% 29.97 in 10.0 mi East 12.7 mph - N/A   Scattered Clouds
2:15 AM 77.5 °F - 75.2 °F 92% 29.97 in 10.0 mi ESE 11.5 mph 18.4 mph N/A   Scattered Clouds
2:35 AM 77.5 °F - 75.2 °F 92% 29.96 in 10.0 mi East 11.5 mph - N/A   Clear
2:55 AM 77.5 °F - 75.2 °F 92% 29.96 in 10.0 mi ESE 9.2 mph - N/A   Clear
3:15 AM 77.5 °F - 75.2 °F 92% 29.96 in 10.0 mi ESE 10.4 mph - N/A   Clear
3:35 AM 77.5 °F - 75.2 °F 92% 29.96 in 10.0 mi SE 9.2 mph - N/A   Clear
3:55 AM 77.5 °F - 75.4 °F 93% 29.95 in 10.0 mi SE 8.1 mph - N/A   Scattered Clouds
4:15 AM 77.0 °F - 74.8 °F 93% 29.95 in 10.0 mi ESE 8.1 mph - N/A   Light Drizzle
4:35 AM 77.2 °F - 75.2 °F 94% 29.95 in 10.0 mi SE 10.4 mph - N/A   Mostly Cloudy
4:55 AM 76.1 °F - 74.3 °F 94% 29.96 in 3.0 mi SSE 13.8 mph 19.6 mph 0.16 in Rain Heavy Rain
5:15 AM 76.1 °F - 74.5 °F 95% 29.96 in 5.0 mi SE 9.2 mph - 0.05 in Rain Rain
5:35 AM 76.1 °F - 74.8 °F 96% 29.96 in 3.0 mi SSE 9.2 mph - 0.22 in Rain Rain
5:55 AM 76.1 °F - 74.7 °F 95% 29.96 in 10.0 mi SE 12.7 mph - 0.25 in Rain Light Rain
6:15 AM 76.1 °F - 74.5 °F 95% 29.97 in 10.0 mi SE 11.5 mph - N/A   Drizzle
6:35 AM 75.7 °F - 74.3 °F 95% 29.97 in 10.0 mi SE 9.2 mph - N/A   Scattered Clouds
6:55 AM 75.7 °F - 74.3 °F 95% 29.97 in 10.0 mi SE 8.1 mph - N/A   Scattered Clouds
7:15 AM 75.7 °F - 74.3 °F 95% 29.97 in 10.0 mi SE 10.4 mph - N/A   Mostly Cloudy
7:35 AM 75.9 °F - 74.5 °F 95% 29.98 in 10.0 mi SE 8.1 mph - N/A   Scattered Clouds
7:55 AM 76.3 °F - 74.8 °F 95% 29.98 in 10.0 mi SE 8.1 mph - N/A   Scattered Clouds
8:15 AM 76.5 °F - 74.8 °F 95% 29.99 in 10.0 mi SE 8.1 mph - N/A   Scattered Clouds
8:35 AM 76.6 °F - 75.2 °F 95% 29.98 in 10.0 mi ESE 10.4 mph - N/A   Mostly Cloudy
8:55 AM 77.5 °F - 75.7 °F 94% 29.98 in 10.0 mi SE 11.5 mph - N/A   Mostly Cloudy
9:15 AM 77.5 °F - 75.2 °F 92% 29.98 in 10.0 mi SE 10.4 mph - N/A   Mostly Cloudy
9:35 AM 78.3 °F - 75.6 °F 91% 29.98 in 10.0 mi SSE 12.7 mph - N/A   Scattered Clouds
9:55 AM 78.4 °F - 75.4 °F 90% 29.98 in 10.0 mi SE 10.4 mph - N/A   Mostly Cloudy
10:15 AM 79.0 °F - 75.6 °F 89% 29.98 in 10.0 mi SE 13.8 mph 18.4 mph N/A   Scattered Clouds
10:35 AM 79.2 °F - 75.2 °F 88% 29.98 in 10.0 mi SSE 12.7 mph 20.7 mph N/A   Scattered Clouds
10:55 AM 78.8 °F - 75.2 °F 89% 29.98 in 10.0 mi SE 15.0 mph - N/A   Clear
11:15 AM 79.9 °F - 75.6 °F 87% 29.97 in 10.0 mi SE 16.1 mph - N/A   Scattered Clouds
11:35 AM 81.7 °F 89.0 °F 76.5 °F 84% 29.97 in 10.0 mi SE 17.3 mph 20.7 mph N/A   Clear
11:55 AM 81.3 °F 87.6 °F 75.2 °F 82% 29.97 in 10.0 mi SE 17.3 mph 23.0 mph N/A   Clear
12:15 PM 81.9 °F 88.2 °F 74.7 °F 79% 29.96 in 10.0 mi SSE 16.1 mph 25.3 mph N/A   Clear
12:35 PM 82.8 °F 89.8 °F 75.0 °F 77% 29.96 in 10.0 mi SE 18.4 mph 23.0 mph N/A   Clear
12:55 PM 84.0 °F 91.9 °F 74.8 °F 74% 29.95 in 10.0 mi SE 19.6 mph 25.3 mph N/A   Clear
1:15 PM 85.1 °F 93.3 °F 74.8 °F 71% 29.93 in 10.0 mi SE 18.4 mph 26.5 mph 0.01 in   Clear
1:35 PM 84.4 °F 91.7 °F 74.1 °F 71% 29.92 in 10.0 mi SSE 19.6 mph 25.3 mph 0.01 in   Clear
1:55 PM 86.0 °F 94.2 °F 74.3 °F 68% 29.91 in 10.0 mi SSE 19.6 mph 26.5 mph 0.01 in Thunderstorm Clear
2:15 PM 85.5 °F 92.6 °F 73.4 °F 67% 29.90 in 10.0 mi SSE 21.9 mph 28.8 mph N/A   Clear
2:35 PM 86.0 °F 93.0 °F 73.2 °F 65% 29.90 in 10.0 mi SSE 21.9 mph 29.9 mph N/A   Clear
2:55 PM 85.5 °F 92.6 °F 73.4 °F 67% 29.88 in 10.0 mi SE 17.3 mph 27.6 mph N/A   Clear
3:15 PM 86.7 °F 94.1 °F 73.4 °F 64% 29.87 in 10.0 mi SE 21.9 mph 27.6 mph N/A   Clear
3:35 PM 85.5 °F 92.6 °F 73.2 °F 67% 29.86 in 10.0 mi SE 18.4 mph 27.6 mph N/A   Clear
3:55 PM 86.0 °F 93.4 °F 73.4 °F 66% 29.85 in 10.0 mi SE 16.1 mph 26.5 mph N/A   Scattered Clouds
4:15 PM 85.5 °F 92.6 °F 73.2 °F 67% 29.85 in 10.0 mi SE 15.0 mph - N/A   Clear
4:35 PM 85.3 °F 92.2 °F 73.0 °F 67% 29.85 in 10.0 mi SE 18.4 mph 27.6 mph N/A   Scattered Clouds
4:55 PM 84.6 °F 90.7 °F 72.7 °F 67% 29.86 in 10.0 mi South 10.4 mph 25.3 mph N/A Thunderstorm Scattered Clouds
5:15 PM 75.9 °F - 70.3 °F 83% 29.86 in 10.0 mi WSW 9.2 mph - N/A Thunderstorm Mostly Cloudy
5:35 PM 73.9 °F - 71.8 °F 93% 29.88 in 1.2 mi SW 12.7 mph 25.3 mph 0.34 in Rain , Thunderstorm Heavy Thunderstorms and Rain
5:55 PM 73.0 °F - 71.6 °F 95% 29.87 in 2.0 mi West 10.4 mph - 0.81 in Rain , Thunderstorm Heavy Thunderstorms and Rain
6:15 PM 73.9 °F - 72.9 °F 96% 29.85 in 1.8 mi West 11.5 mph - 0.41 in Rain , Thunderstorm Heavy Thunderstorms and Rain
6:35 PM 74.5 °F - 73.6 °F 97% 29.87 in 1.5 mi South 9.2 mph 18.4 mph 0.88 in Rain , Thunderstorm Heavy Thunderstorms and Rain
6:55 PM 73.9 °F - 72.7 °F 96% 29.85 in 5.0 mi SSE 5.8 mph - 0.97 in Rain , Thunderstorm Heavy Thunderstorms and Rain
7:15 PM 73.0 °F - 72.0 °F 96% 29.85 in 7.0 mi ESE 6.9 mph - 0.03 in Rain , Thunderstorm Light Thunderstorms and Rain
7:35 PM 73.2 °F - 72.3 °F 97% 29.85 in 7.0 mi East 3.5 mph - 0.07 in Rain , Thunderstorm Thunderstorms and Rain
7:55 PM 73.0 °F - 72.1 °F 97% 29.85 in 5.0 mi East 5.8 mph - 0.11 in Rain , Thunderstorm Heavy Thunderstorms and Rain
8:15 PM 73.6 °F - 72.7 °F 97% 29.84 in 4.0 mi East 5.8 mph - 0.09 in Rain , Thunderstorm Heavy Thunderstorms and Rain
8:35 PM 73.9 °F - 73.0 °F 97% 29.82 in 7.0 mi NNE 4.6 mph - 0.14 in Rain , Thunderstorm Thunderstorms and Rain
8:55 PM 73.9 °F - 73.0 °F 97% 29.83 in 2.0 mi Calm Calm - 0.28 in Rain , Thunderstorm Heavy Thunderstorms and Rain
9:15 PM 73.9 °F - 73.0 °F 97% 29.84 in 1.5 mi SSE 3.5 mph - 0.24 in Rain , Thunderstorm Heavy Thunderstorms and Rain
9:35 PM 73.9 °F - 73.2 °F 98% 29.84 in 4.0 mi ESE 6.9 mph - 0.37 in Rain Heavy Rain
9:55 PM 73.9 °F - 73.2 °F 98% 29.84 in 5.0 mi ESE 8.1 mph - 0.45 in Rain Rain
10:15 PM 73.9 °F - 73.0 °F 97% 29.84 in 7.0 mi ESE 9.2 mph - 0.04 in Rain Rain
10:35 PM 73.9 °F - 73.0 °F 97% 29.84 in 10.0 mi ESE 10.4 mph - 0.08 in Rain Rain
10:55 PM 73.4 °F - 73.4 °F 100% 29.83 in 10.0 mi ESE 10.4 mph - N/A Rain Light Rain
11:15 PM 73.9 °F - 73.0 °F 97% 29.83 in 10.0 mi ESE 10.4 mph - N/A   Scattered Clouds
11:35 PM 73.9 °F - 73.0 °F 97% 29.83 in 10.0 mi ESE 11.5 mph - N/A   Scattered Clouds
11:55 PM 73.9 °F - 72.7 °F 96% 29.82 in 10.0 mi ESE 9.2 mph - N/A   Mostly Cloudy